When you browse on this site, cookies collect data to enhance your experience and personalize the content and advertising you see.
Visit our Privacy Policy to learn more. By continuing to use the site, you agree to this use of cookies and data.
  • In Czech Republic
  • List of Countries
  • For 7 days
  • Water Temperature
  • Satellite Maps
  • Weather Map
  • Weather Widgets
  • user-avatar
    Login

    Hourly Weather Dmitrovka 2

    Today, 20 July, Saturday

    Time Temperature Precipitation Wind Pressure Humidity
    00:00 +14°C° 0 mm 2 mps 746 mmHg 92%
    01:00 +14°C° 0 mm 2 mps 746 mmHg 92%
    02:00 +13°C° 0 mm 2 mps 746 mmHg 92%
    03:00 +13°C° 0 mm 2 mps 747 mmHg 92%
    04:00 +13°C° 0 mm 2 mps 747 mmHg 91%
    05:00 +13°C° 0 mm 2 mps 747 mmHg 90%
    06:00 +15°C° 0 mm 2 mps 747 mmHg 84%
    07:00 +17°C° 0 mm 2 mps 748 mmHg 77%
    08:00 +19°C° 0 mm 2 mps 748 mmHg 71%
    09:00 +21°C° 0 mm 2 mps 748 mmHg 66%
    10:00 +23°C° 0 mm 2 mps 748 mmHg 60%
    11:00 +25°C° 0 mm 3 mps 749 mmHg 55%
    12:00 +25°C° 0 mm 3 mps 748 mmHg 54%
    13:00 +26°C° 0 mm 3 mps 748 mmHg 53%
    14:00 +26°C° 0 mm 3 mps 748 mmHg 51%
    15:00 +26°C° 0.1 mm 3 mps 748 mmHg 55%
    16:00 +26°C° 0.1 mm 2 mps 748 mmHg 58%
    17:00 +25°C° 0.1 mm 2 mps 748 mmHg 62%
    18:00 +23°C° 0.3 mm 2 mps 748 mmHg 69%
    19:00 +22°C° 0.3 mm 1 mps 748 mmHg 77%
    20:00 +20°C° 0.3 mm 1 mps 748 mmHg 84%
    21:00 +19°C° 0 mm 1 mps 748 mmHg 86%
    22:00 +18°C° 0 mm 1 mps 749 mmHg 88%
    23:00 +18°C° 0 mm 1 mps 749 mmHg 91%

    Tomorrow, 21 July, Sunday

    Time Temperature Precipitation Wind Pressure Humidity
    00:00 +16°C° 0 mm 1 mps 749 mmHg 91%
    01:00 +15°C° 0 mm 0 mps 749 mmHg 91%
    02:00 +14°C° 0 mm 0 mps 749 mmHg 91%
    03:00 +14°C° 0 mm 0 mps 749 mmHg 92%
    04:00 +15°C° 0 mm 1 mps 749 mmHg 92%
    05:00 +16°C° 0 mm 1 mps 749 mmHg 93%
    06:00 +18°C° 0 mm 1 mps 749 mmHg 87%
    07:00 +20°C° 0 mm 1 mps 749 mmHg 81%
    08:00 +22°C° 0 mm 1 mps 749 mmHg 76%
    09:00 +23°C° 0.3 mm 1 mps 749 mmHg 70%
    10:00 +25°C° 0.3 mm 1 mps 749 mmHg 65%
    11:00 +26°C° 0.3 mm 1 mps 749 mmHg 60%
    12:00 +26°C° 0.4 mm 1 mps 749 mmHg 60%
    13:00 +26°C° 0.4 mm 2 mps 749 mmHg 59%
    14:00 +27°C° 0.4 mm 2 mps 749 mmHg 59%
    15:00 +27°C° 0.4 mm 2 mps 749 mmHg 60%
    16:00 +27°C° 0.4 mm 1 mps 748 mmHg 60%
    17:00 +26°C° 0.4 mm 1 mps 748 mmHg 61%
    18:00 +25°C° 0.1 mm 1 mps 748 mmHg 68%
    19:00 +23°C° 0.1 mm 1 mps 748 mmHg 74%
    20:00 +21°C° 0.1 mm 1 mps 748 mmHg 81%
    21:00 +20°C° 0.2 mm 1 mps 748 mmHg 84%
    22:00 +20°C° 0.2 mm 1 mps 748 mmHg 86%
    23:00 +18°C° 0.2 mm 2 mps 748 mmHg 89%

    Day after tomorrow, 22 July, Monday

    Time Temperature Precipitation Wind Pressure Humidity
    00:00 +17°C° 0.1 mm 2 mps 747 mmHg 90%
    01:00 +17°C° 0.1 mm 2 mps 747 mmHg 90%
    02:00 +17°C° 0.1 mm 2 mps 747 mmHg 91%
    03:00 +17°C° 0.2 mm 2 mps 746 mmHg 92%
    04:00 +16°C° 0.2 mm 2 mps 746 mmHg 93%
    05:00 +16°C° 0.2 mm 2 mps 746 mmHg 94%
    06:00 +18°C° 0.5 mm 2 mps 746 mmHg 92%
    07:00 +19°C° 0.5 mm 2 mps 746 mmHg 90%
    08:00 +20°C° 0.5 mm 2 mps 745 mmHg 88%
    09:00 +21°C° 1.3 mm 2 mps 745 mmHg 87%
    10:00 +23°C° 1.3 mm 2 mps 745 mmHg 85%
    11:00 +23°C° 1.3 mm 2 mps 745 mmHg 84%
    12:00 +21°C° 1.7 mm 2 mps 745 mmHg 88%
    13:00 +20°C° 1.7 mm 2 mps 745 mmHg 91%
    14:00 +19°C° 1.7 mm 2 mps 745 mmHg 95%
    15:00 +18°C° 1.4 mm 3 mps 745 mmHg 95%
    16:00 +18°C° 1.4 mm 3 mps 744 mmHg 96%
    17:00 +18°C° 1.4 mm 3 mps 744 mmHg 96%
    18:00 +18°C° 0.4 mm 4 mps 744 mmHg 96%
    19:00 +17°C° 0.4 mm 4 mps 744 mmHg 97%
    20:00 +17°C° 0.4 mm 4 mps 744 mmHg 97%
    21:00 +17°C° 0.2 mm 4 mps 744 mmHg 96%
    22:00 +15°C° 0.2 mm 4 mps 744 mmHg 96%
    23:00 +15°C° 0.2 mm 4 mps 744 mmHg 96%

    23 July, Tuesday

    Time Temperature Precipitation Wind Pressure Humidity
    00:00 +15°C° 0.1 mm 4 mps 743 mmHg 96%
    01:00 +15°C° 0.1 mm 4 mps 743 mmHg 96%
    02:00 +15°C° 0.1 mm 4 mps 743 mmHg 95%
    03:00 +16°C° 0.2 mm 3 mps 743 mmHg 96%
    04:00 +16°C° 0.2 mm 3 mps 743 mmHg 97%
    05:00 +16°C° 0.2 mm 3 mps 743 mmHg 98%
    06:00 +17°C° 0.9 mm 3 mps 743 mmHg 97%
    07:00 +17°C° 0.9 mm 4 mps 743 mmHg 97%
    08:00 +16°C° 0.9 mm 5 mps 743 mmHg 97%
    09:00 +16°C° 0.6 mm 5 mps 743 mmHg 96%
    10:00 +17°C° 0.6 mm 5 mps 743 mmHg 94%
    11:00 +17°C° 0.6 mm 5 mps 743 mmHg 93%
    12:00 +19°C° 0.2 mm 5 mps 744 mmHg 91%
    13:00 +19°C° 0.2 mm 5 mps 744 mmHg 90%
    14:00 +20°C° 0.2 mm 5 mps 744 mmHg 88%
    15:00 +21°C° 0.4 mm 5 mps 744 mmHg 85%
    16:00 +21°C° 0.4 mm 6 mps 744 mmHg 81%
    17:00 +22°C° 0.4 mm 6 mps 744 mmHg 78%
    18:00 +21°C° 0.2 mm 5 mps 744 mmHg 81%
    19:00 +20°C° 0.2 mm 4 mps 744 mmHg 84%
    20:00 +19°C° 0.2 mm 4 mps 744 mmHg 87%
    21:00 +18°C° 0 mm 4 mps 745 mmHg 89%
    22:00 +17°C° 0 mm 3 mps 745 mmHg 91%
    23:00 +17°C° 0 mm 3 mps 745 mmHg 93%

    24 July, Wednesday

    Time Temperature Precipitation Wind Pressure Humidity
    00:00 +16°C° 0 mm 3 mps 745 mmHg 93%
    01:00 +16°C° 0 mm 3 mps 745 mmHg 93%
    02:00 +14°C° 0 mm 3 mps 746 mmHg 94%
    03:00 +14°C° 0 mm 4 mps 746 mmHg 93%
    04:00 +14°C° 0 mm 4 mps 746 mmHg 92%
    05:00 +13°C° 0 mm 4 mps 746 mmHg 91%
    06:00 +15°C° 0 mm 4 mps 746 mmHg 86%
    07:00 +17°C° 0 mm 4 mps 746 mmHg 80%
    08:00 +19°C° 0 mm 4 mps 747 mmHg 75%
    09:00 +20°C° 0 mm 4 mps 747 mmHg 69%
    10:00 +22°C° 0 mm 5 mps 747 mmHg 63%
    11:00 +25°C° 0 mm 5 mps 747 mmHg 57%
    12:00 +25°C° 0 mm 5 mps 747 mmHg 56%
    13:00 +25°C° 0 mm 5 mps 747 mmHg 55%
    14:00 +24°C° 0 mm 6 mps 747 mmHg 54%
    15:00 +25°C° 0 mm 5 mps 747 mmHg 56%
    16:00 +23°C° 0 mm 5 mps 747 mmHg 58%
    17:00 +23°C° 0 mm 5 mps 747 mmHg 60%
    18:00 +21°C° 0 mm 4 mps 747 mmHg 67%
    19:00 +20°C° 0 mm 3 mps 747 mmHg 73%
    20:00 +18°C° 0 mm 3 mps 748 mmHg 79%
    21:00 +17°C° 0 mm 3 mps 748 mmHg 80%
    22:00 +17°C° 0 mm 3 mps 748 mmHg 80%
    23:00 +16°C° 0 mm 3 mps 748 mmHg 81%

    25 July, Thursday

    Time Temperature Precipitation Wind Pressure Humidity
    00:00 +14°C° 0 mm 3 mps 748 mmHg 82%
    01:00 +14°C° 0 mm 3 mps 748 mmHg 84%
    02:00 +14°C° 0 mm 3 mps 749 mmHg 85%
    03:00 +13°C° 0 mm 3 mps 749 mmHg 85%
    04:00 +13°C° 0 mm 3 mps 749 mmHg 86%
    05:00 +13°C° 0 mm 3 mps 749 mmHg 86%
    06:00 +15°C° 0 mm 4 mps 749 mmHg 80%
    07:00 +18°C° 0 mm 4 mps 749 mmHg 74%
    08:00 +20°C° 0 mm 4 mps 750 mmHg 67%
    09:00 +21°C° 0 mm 5 mps 750 mmHg 62%
    10:00 +23°C° 0 mm 5 mps 750 mmHg 57%
    11:00 +25°C° 0 mm 5 mps 750 mmHg 52%
    12:00 +25°C° 0 mm 5 mps 750 mmHg 52%
    13:00 +26°C° 0 mm 5 mps 750 mmHg 52%
    14:00 +26°C° 0 mm 5 mps 750 mmHg 51%
    15:00 +26°C° 0 mm 5 mps 750 mmHg 54%
    16:00 +26°C° 0 mm 5 mps 750 mmHg 57%
    17:00 +25°C° 0 mm 4 mps 749 mmHg 60%
    18:00 +23°C° 0.1 mm 4 mps 749 mmHg 66%
    19:00 +21°C° 0.1 mm 4 mps 749 mmHg 73%
    20:00 +20°C° 0.1 mm 3 mps 750 mmHg 79%
    21:00 +19°C° 0 mm 3 mps 749 mmHg 81%
    22:00 +18°C° 0 mm 3 mps 749 mmHg 82%
    23:00 +17°C° 0 mm 3 mps 749 mmHg 84%
    Show more